Time,TemperatureF,DewpointF,PressureIn,WindDirection,WindDirectionDegrees,WindSpeedMPH,WindSpeedGustMPH,Humidity,HourlyPrecipIn,Conditions,Clouds,dailyrainin,SoftwareType,DateUTC
2013-02-19 00:01:00,23.0,7.5,30.08,WSW,238,0.0,1.0,51,0.00,,,0.07,Wunderground v.1.15,2013-02-19 05:01:00,
2013-02-19 00:06:00,23.0,7.5,30.07,WSW,238,0.0,1.0,51,0.00,,,0.07,Wunderground v.1.15,2013-02-19 05:06:00,
2013-02-19 00:11:00,22.9,7.9,30.07,WSW,238,0.0,0.0,52,0.00,,,0.07,Wunderground v.1.15,2013-02-19 05:11:00,
2013-02-19 00:21:00,22.9,7.4,30.07,WSW,238,0.0,1.0,51,0.00,,,0.07,Wunderground v.1.15,2013-02-19 05:21:00,
2013-02-19 00:31:00,22.9,7.4,30.07,WSW,237,0.0,0.0,51,0.00,,,0.07,Wunderground v.1.15,2013-02-19 05:31:00,
2013-02-19 00:41:00,22.7,7.7,30.07,WSW,237,0.0,0.0,52,0.00,,,0.07,Wunderground v.1.15,2013-02-19 05:41:00,
2013-02-19 00:51:00,22.8,7.4,30.08,WSW,238,0.0,0.0,51,0.00,,,0.07,Wunderground v.1.15,2013-02-19 05:51:00,
2013-02-19 01:01:00,22.8,7.8,30.08,WSW,238,1.0,2.0,52,0.00,,,0.00,Wunderground v.1.15,2013-02-19 06:01:00,
2013-02-19 01:06:00,22.9,7.9,30.07,WSW,238,1.0,2.0,52,0.00,,,0.00,Wunderground v.1.15,2013-02-19 06:06:00,
2013-02-19 01:16:00,22.9,7.9,30.08,WSW,237,1.0,1.0,52,0.00,,,0.00,Wunderground v.1.15,2013-02-19 06:16:00,
2013-02-19 01:26:00,22.9,7.9,30.08,WSW,238,1.0,2.0,52,0.00,,,0.00,Wunderground v.1.15,2013-02-19 06:26:00,
2013-02-19 01:31:00,22.9,7.9,30.08,WSW,238,1.0,2.0,52,0.00,,,0.00,Wunderground v.1.15,2013-02-19 06:31:00,
2013-02-19 01:40:00,22.8,7.8,30.08,WSW,238,1.0,1.0,52,0.00,,,0.00,Wunderground v.1.15,2013-02-19 06:40:00,
2013-02-19 01:46:00,22.8,7.8,30.08,WSW,238,1.0,2.0,52,0.00,,,0.00,Wunderground v.1.15,2013-02-19 06:46:00,
2013-02-19 01:51:00,22.8,7.8,30.08,WSW,237,1.0,2.0,52,0.00,,,0.00,Wunderground v.1.15,2013-02-19 06:51:00,
2013-02-19 02:01:00,22.7,8.1,30.08,WSW,238,1.0,1.0,53,0.00,,,0.00,Wunderground v.1.15,2013-02-19 07:01:00,
2013-02-19 02:11:00,22.8,8.2,30.09,West,271,0.0,0.0,53,0.00,,,0.00,Wunderground v.1.15,2013-02-19 07:11:00,
2013-02-19 02:21:00,22.9,8.3,30.08,West,271,1.0,1.0,53,0.00,,,0.00,Wunderground v.1.15,2013-02-19 07:21:00,
2013-02-19 02:31:00,23.1,8.1,30.09,West,271,1.0,1.0,52,0.00,,,0.00,Wunderground v.1.15,2013-02-19 07:31:00,
2013-02-19 02:36:00,23.2,8.2,30.08,NNW,328,1.0,1.0,52,0.00,,,0.00,Wunderground v.1.15,2013-02-19 07:36:00,
2013-02-19 02:46:00,23.5,8.4,30.09,NW,312,1.0,1.0,52,0.00,,,0.00,Wunderground v.1.15,2013-02-19 07:46:00,
2013-02-19 02:56:00,23.8,8.3,30.09,West,270,1.0,1.0,51,0.00,,,0.00,Wunderground v.1.15,2013-02-19 07:56:00,
2013-02-19 03:06:00,24.0,8.5,30.08,WNW,283,1.0,1.0,51,0.00,,,0.00,Wunderground v.1.15,2013-02-19 08:06:00,
2013-02-19 03:16:00,24.1,8.1,30.08,WNW,295,1.0,1.0,50,0.00,,,0.00,Wunderground v.1.15,2013-02-19 08:16:00,
2013-02-19 03:26:00,24.0,8.5,30.09,WNW,293,1.0,2.0,51,0.00,,,0.00,Wunderground v.1.15,2013-02-19 08:26:00,
2013-02-19 03:31:00,24.0,8.0,30.09,WNW,293,1.0,2.0,50,0.00,,,0.00,Wunderground v.1.15,2013-02-19 08:31:00,
2013-02-19 03:41:00,23.9,7.9,30.08,WNW,293,1.0,1.0,50,0.00,,,0.00,Wunderground v.1.15,2013-02-19 08:41:00,
2013-02-19 03:51:00,23.8,8.3,30.08,WNW,293,0.0,3.0,51,0.00,,,0.00,Wunderground v.1.15,2013-02-19 08:51:00,
2013-02-19 04:01:00,23.7,8.2,30.08,WNW,292,1.0,1.0,51,0.00,,,0.00,Wunderground v.1.15,2013-02-19 09:01:00,
2013-02-19 04:11:00,23.7,8.6,30.08,WNW,293,0.0,0.0,52,0.00,,,0.00,Wunderground v.1.15,2013-02-19 09:11:00,
2013-02-19 04:21:00,23.6,8.5,30.08,NNW,334,0.0,0.0,52,0.00,,,0.00,Wunderground v.1.15,2013-02-19 09:21:00,
2013-02-19 04:31:00,23.6,8.5,30.08,NNW,333,0.0,0.0,52,0.00,,,0.00,Wunderground v.1.15,2013-02-19 09:31:00,
2013-02-19 04:41:00,23.8,8.3,30.08,NNW,333,0.0,0.0,51,0.00,,,0.00,Wunderground v.1.15,2013-02-19 09:41:00,
2013-02-19 04:51:00,23.7,8.2,30.07,NNW,333,0.0,0.0,51,0.00,,,0.00,Wunderground v.1.15,2013-02-19 09:51:00,
2013-02-19 04:56:00,23.6,8.5,30.08,NNW,333,0.0,0.0,52,0.00,,,0.00,Wunderground v.1.15,2013-02-19 09:56:00,
2013-02-19 05:06:00,23.3,8.7,30.07,NNW,333,0.0,0.0,53,0.00,,,0.00,Wunderground v.1.15,2013-02-19 10:06:00,
2013-02-19 05:11:00,23.1,8.5,30.07,NNW,333,0.0,0.0,53,0.00,,,0.00,Wunderground v.1.15,2013-02-19 10:11:00,
2013-02-19 05:21:00,22.5,8.3,30.06,NNW,333,0.0,0.0,54,0.00,,,0.00,Wunderground v.1.15,2013-02-19 10:21:00,
2013-02-19 05:26:00,22.3,8.2,30.06,NNW,333,0.0,0.0,54,0.00,,,0.00,Wunderground v.1.15,2013-02-19 10:26:00,
2013-02-19 05:31:00,22.1,8.8,30.06,NNW,333,0.0,0.0,56,0.00,,,0.00,Wunderground v.1.15,2013-02-19 10:31:00,
2013-02-19 05:41:00,22.1,9.2,30.06,NNW,333,0.0,0.0,57,0.00,,,0.00,Wunderground v.1.15,2013-02-19 10:41:00,
2013-02-19 05:51:00,22.4,9.4,30.05,NNW,333,0.0,0.0,57,0.00,,,0.00,Wunderground v.1.15,2013-02-19 10:51:00,
2013-02-19 06:01:00,23.0,10.0,30.05,NNW,333,0.0,0.0,57,0.00,,,0.00,Wunderground v.1.15,2013-02-19 11:01:00,
2013-02-19 06:11:00,23.3,9.5,30.05,NNW,333,0.0,0.0,55,0.00,,,0.00,Wunderground v.1.15,2013-02-19 11:11:00,
2013-02-19 06:21:00,23.5,9.7,30.05,NNW,333,0.0,0.0,55,0.00,,,0.00,Wunderground v.1.15,2013-02-19 11:21:00,
2013-02-19 06:26:00,23.5,10.1,30.06,NNW,333,0.0,0.0,56,0.00,,,0.00,Wunderground v.1.15,2013-02-19 11:26:00,
2013-02-19 06:31:00,23.7,9.9,30.06,NNW,333,0.0,0.0,55,0.00,,,0.00,Wunderground v.1.15,2013-02-19 11:31:00,
2013-02-19 06:41:00,24.1,10.2,30.06,NNW,333,0.0,0.0,55,0.00,,,0.00,Wunderground v.1.15,2013-02-19 11:41:00,
2013-02-19 06:50:00,24.5,10.2,30.07,NNW,333,0.0,0.0,54,0.00,,,0.00,Wunderground v.1.15,2013-02-19 11:50:00,
2013-02-19 07:01:00,24.8,10.5,30.07,NNW,333,0.0,0.0,54,0.00,,,0.00,Wunderground v.1.15,2013-02-19 12:01:00,
2013-02-19 07:11:00,25.1,10.8,30.07,NNW,333,0.0,0.0,54,0.00,,,0.00,Wunderground v.1.15,2013-02-19 12:11:00,
2013-02-19 07:21:00,25.3,11.4,30.06,NNW,333,0.0,0.0,55,0.00,,,0.00,Wunderground v.1.15,2013-02-19 12:21:00,
2013-02-19 07:30:00,25.5,11.6,30.06,NNW,333,0.0,0.0,55,0.00,,,0.00,Wunderground v.1.15,2013-02-19 12:30:00,
2013-02-19 07:35:00,25.7,11.7,30.06,NNW,333,0.0,0.0,55,0.00,,,0.00,Wunderground v.1.15,2013-02-19 12:35:00,
2013-02-19 07:45:00,26.3,11.9,30.06,NNW,333,0.0,0.0,54,0.00,,,0.00,Wunderground v.1.15,2013-02-19 12:45:00,
2013-02-19 07:51:00,26.7,11.8,30.05,NNW,333,0.0,0.0,53,0.00,,,0.00,Wunderground v.1.15,2013-02-19 12:51:00,
2013-02-19 07:56:00,26.9,11.6,30.05,NNW,333,0.0,0.0,52,0.00,,,0.00,Wunderground v.1.15,2013-02-19 12:56:00,
2013-02-19 08:06:00,27.2,11.9,30.05,NNW,333,0.0,0.0,52,0.00,,,0.00,Wunderground v.1.15,2013-02-19 13:06:00,
2013-02-19 08:11:00,27.5,12.2,30.05,NNW,333,0.0,0.0,52,0.00,,,0.00,Wunderground v.1.15,2013-02-19 13:11:00,
2013-02-19 08:16:00,27.8,12.4,30.05,NNW,333,0.0,0.0,52,0.00,,,0.00,Wunderground v.1.15,2013-02-19 13:16:00,
2013-02-19 08:26:00,28.5,13.1,30.04,NNW,333,0.0,2.0,52,0.00,,,0.00,Wunderground v.1.15,2013-02-19 13:26:00,
2013-02-19 08:31:00,29.1,12.8,30.05,NNW,333,0.0,0.0,50,0.00,,,0.00,Wunderground v.1.15,2013-02-19 13:31:00,
2013-02-19 08:41:00,29.4,13.0,30.05,NNW,333,0.0,0.0,50,0.00,,,0.00,Wunderground v.1.15,2013-02-19 13:41:00,
2013-02-19 08:46:00,29.4,13.0,30.04,NNW,333,0.0,0.0,50,0.00,,,0.00,Wunderground v.1.15,2013-02-19 13:46:00,
2013-02-19 08:56:00,30.3,13.9,30.04,NNW,333,0.0,1.0,50,0.00,,,0.00,Wunderground v.1.15,2013-02-19 13:56:00,
2013-02-19 09:06:00,31.6,14.6,30.04,NNW,346,0.0,0.0,49,0.00,,,0.00,Wunderground v.1.15,2013-02-19 14:06:00,
2013-02-19 09:16:00,32.5,15.0,30.04,NNW,345,0.0,0.0,48,0.00,,,0.00,Wunderground v.1.15,2013-02-19 14:16:00,
2013-02-19 09:26:00,34.0,15.4,30.04,NNW,346,0.0,0.0,46,0.00,,,0.00,Wunderground v.1.15,2013-02-19 14:26:00,
2013-02-19 09:36:00,34.4,18.1,30.03,ENE,60,0.0,0.0,51,0.00,,,0.01,Wunderground v.1.15,2013-02-19 14:36:00,
2013-02-19 09:46:00,34.9,18.1,30.03,ENE,60,0.0,1.0,50,0.00,,,0.01,Wunderground v.1.15,2013-02-19 14:46:00,
2013-02-19 09:56:00,35.5,18.7,30.03,ENE,60,0.0,0.0,50,0.00,,,0.01,Wunderground v.1.15,2013-02-19 14:56:00,
2013-02-19 10:06:00,35.7,20.2,30.03,ENE,60,0.0,2.0,53,0.00,,,0.01,Wunderground v.1.15,2013-02-19 15:06:00,
2013-02-19 10:16:00,36.5,20.5,30.02,ENE,60,0.0,0.0,52,0.00,,,0.02,Wunderground v.1.15,2013-02-19 15:16:00,
2013-02-19 10:26:00,36.3,20.3,30.02,East,92,1.0,1.0,52,0.00,,,0.02,Wunderground v.1.15,2013-02-19 15:26:00,
2013-02-19 10:36:00,36.3,20.8,30.01,ESE,113,1.0,3.0,53,0.00,,,0.02,Wunderground v.1.15,2013-02-19 15:36:00,
2013-02-19 10:46:00,36.9,21.3,30.01,ESE,111,1.0,2.0,53,0.00,,,0.02,Wunderground v.1.15,2013-02-19 15:46:00,
2013-02-19 10:56:00,37.8,22.6,30.01,ESE,111,0.0,1.0,54,0.00,,,0.02,Wunderground v.1.15,2013-02-19 15:56:00,
2013-02-19 11:06:00,37.8,24.3,30.00,ESE,111,0.0,0.0,58,0.00,,,0.02,Wunderground v.1.15,2013-02-19 16:06:00,
2013-02-19 11:16:00,37.4,24.0,30.00,ESE,112,0.0,0.0,58,0.00,,,0.02,Wunderground v.1.15,2013-02-19 16:16:00,
2013-02-19 11:26:00,36.8,24.2,29.99,ESE,111,1.0,1.0,60,0.00,,,0.02,Wunderground v.1.15,2013-02-19 16:26:00,
2013-02-19 11:36:00,36.6,23.2,29.99,ESE,112,0.0,1.0,58,0.00,,,0.02,Wunderground v.1.15,2013-02-19 16:36:00,
2013-02-19 11:45:00,36.9,23.5,29.99,ESE,111,0.0,0.0,58,0.00,,,0.02,Wunderground v.1.15,2013-02-19 16:45:00,
2013-02-19 11:51:00,36.9,24.3,29.98,ESE,112,0.0,0.0,60,0.00,,,0.02,Wunderground v.1.15,2013-02-19 16:51:00,
2013-02-19 12:01:00,37.2,25.8,29.97,ESE,112,1.0,1.0,63,0.00,,,0.02,Wunderground v.1.15,2013-02-19 17:01:00,
2013-02-19 12:10:00,38.3,27.2,29.96,ESE,112,0.0,1.0,64,0.00,,,0.02,Wunderground v.1.15,2013-02-19 17:10:00,
2013-02-19 12:15:00,38.2,26.7,29.95,ESE,105,1.0,4.0,63,0.00,,,0.02,Wunderground v.1.15,2013-02-19 17:15:00,
2013-02-19 12:21:00,38.1,27.0,29.95,ESE,105,2.0,2.0,64,0.00,,,0.02,Wunderground v.1.15,2013-02-19 17:21:00,
2013-02-19 12:31:00,38.8,28.8,29.95,ESE,105,0.0,2.0,67,0.00,,,0.02,Wunderground v.1.15,2013-02-19 17:31:00,
2013-02-19 12:41:00,39.4,29.7,29.94,ESE,105,0.0,0.0,68,0.00,,,0.02,Wunderground v.1.15,2013-02-19 17:41:00,
2013-02-19 12:46:00,39.5,29.4,29.94,ESE,105,0.0,0.0,67,0.00,,,0.02,Wunderground v.1.15,2013-02-19 17:46:00,
2013-02-19 12:56:00,40.1,30.0,29.93,ESE,105,0.0,0.0,67,0.00,,,0.02,Wunderground v.1.15,2013-02-19 17:56:00,
2013-02-19 13:01:00,40.8,30.3,29.92,ESE,105,0.0,0.0,66,0.00,,,0.02,Wunderground v.1.15,2013-02-19 18:01:00,
2013-02-19 13:06:00,41.8,30.1,29.92,ESE,103,0.0,0.0,63,0.00,,,0.02,Wunderground v.1.15,2013-02-19 18:06:00,
2013-02-19 13:16:00,43.7,31.1,29.92,ESE,117,0.0,0.0,61,0.00,,,0.02,Wunderground v.1.15,2013-02-19 18:16:00,
2013-02-19 13:26:00,44.1,32.3,29.91,SE,142,1.0,1.0,63,0.00,,,0.02,Wunderground v.1.15,2013-02-19 18:26:00,
2013-02-19 13:35:00,42.7,32.1,29.90,ESE,114,1.0,2.0,66,0.00,,,0.02,Wunderground v.1.15,2013-02-19 18:35:00,
2013-02-19 13:41:00,42.2,32.8,29.90,East,91,1.0,1.0,69,0.00,,,0.02,Wunderground v.1.15,2013-02-19 18:41:00,
2013-02-19 13:51:00,41.1,32.8,29.90,East,92,1.0,1.0,72,0.00,,,0.02,Wunderground v.1.15,2013-02-19 18:51:00,
2013-02-19 14:01:00,40.7,33.1,29.89,South,184,1.0,1.0,74,0.00,,,0.02,Wunderground v.1.15,2013-02-19 19:01:00,
2013-02-19 14:11:00,40.7,33.4,29.90,SE,140,1.0,1.0,75,0.00,,,0.02,Wunderground v.1.15,2013-02-19 19:11:00,
2013-02-19 14:21:00,40.5,33.5,29.88,East,91,1.0,1.0,76,0.00,,,0.02,Wunderground v.1.15,2013-02-19 19:21:00,
2013-02-19 14:31:00,40.5,33.9,29.87,East,91,0.0,0.0,77,0.00,,,0.02,Wunderground v.1.15,2013-02-19 19:31:00,
2013-02-19 14:36:00,40.4,33.8,29.87,East,94,0.0,0.0,77,0.00,,,0.02,Wunderground v.1.15,2013-02-19 19:36:00,
2013-02-19 14:46:00,40.2,34.2,29.87,East,94,0.0,0.0,79,0.00,,,0.02,Wunderground v.1.15,2013-02-19 19:46:00,
2013-02-19 14:51:00,39.9,34.2,29.86,East,94,0.0,0.0,80,0.00,,,0.02,Wunderground v.1.15,2013-02-19 19:51:00,
2013-02-19 15:01:00,39.7,34.7,29.86,East,94,0.0,0.0,82,0.00,,,0.02,Wunderground v.1.15,2013-02-19 20:01:00,
2013-02-19 15:11:00,39.6,34.9,29.84,East,94,0.0,0.0,83,0.00,,,0.02,Wunderground v.1.15,2013-02-19 20:11:00,
2013-02-19 15:21:00,39.4,35.0,29.84,East,94,0.0,0.0,84,0.00,,,0.02,Wunderground v.1.15,2013-02-19 20:21:00,
2013-02-19 15:31:00,39.5,35.4,29.83,East,94,0.0,0.0,85,0.00,,,0.02,Wunderground v.1.15,2013-02-19 20:31:00,
2013-02-19 15:41:00,39.6,35.5,29.83,East,94,0.0,0.0,85,0.00,,,0.02,Wunderground v.1.15,2013-02-19 20:41:00,
2013-02-19 15:51:00,39.8,35.7,29.81,East,94,0.0,0.0,85,0.00,,,0.02,Wunderground v.1.15,2013-02-19 20:51:00,
2013-02-19 16:01:00,40.9,34.6,29.81,East,96,0.0,0.0,78,0.00,,,0.02,Wunderground v.1.15,2013-02-19 21:01:00,
2013-02-19 16:11:00,42.4,34.4,29.80,SE,136,0.0,0.0,73,0.00,,,0.02,Wunderground v.1.15,2013-02-19 21:11:00,
2013-02-19 16:21:00,43.3,34.5,29.80,SE,142,1.0,1.0,71,0.00,,,0.02,Wunderground v.1.15,2013-02-19 21:21:00,
2013-02-19 16:31:00,43.7,34.9,29.79,SE,134,1.0,1.0,71,0.00,,,0.02,Wunderground v.1.15,2013-02-19 21:31:00,
2013-02-19 16:41:00,43.8,35.0,29.79,SSE,150,0.0,1.0,71,0.00,,,0.02,Wunderground v.1.15,2013-02-19 21:41:00,
2013-02-19 16:46:00,43.6,35.5,29.79,SE,137,1.0,1.0,73,0.00,,,0.02,Wunderground v.1.15,2013-02-19 21:46:00,
2013-02-19 16:51:00,42.9,35.5,29.79,ESE,122,1.0,3.0,75,0.00,,,0.02,Wunderground v.1.15,2013-02-19 21:51:00,
2013-02-19 17:01:00,41.9,36.2,29.78,ESE,123,0.0,0.0,80,0.00,,,0.02,Wunderground v.1.15,2013-02-19 22:01:00,
2013-02-19 17:11:00,41.4,36.6,29.78,SSE,147,1.0,1.0,83,0.00,,,0.02,Wunderground v.1.15,2013-02-19 22:11:00,
2013-02-19 17:21:00,41.1,36.9,29.77,SE,140,1.0,1.0,85,0.00,,,0.03,Wunderground v.1.15,2013-02-19 22:21:00,
2013-02-19 17:31:00,40.8,36.9,29.77,SE,125,0.0,0.0,86,0.00,,,0.03,Wunderground v.1.15,2013-02-19 22:31:00,
2013-02-19 17:41:00,40.6,37.3,29.76,SE,137,1.0,1.0,88,0.00,,,0.03,Wunderground v.1.15,2013-02-19 22:41:00,
2013-02-19 17:51:00,40.5,37.5,29.76,SE,138,1.0,1.0,89,0.00,,,0.03,Wunderground v.1.15,2013-02-19 22:51:00,
2013-02-19 18:01:00,40.4,37.4,29.75,SE,145,1.0,1.0,89,0.00,,,0.03,Wunderground v.1.15,2013-02-19 23:01:00,
2013-02-19 18:11:00,40.2,37.5,29.74,SE,133,1.0,1.0,90,0.00,,,0.03,Wunderground v.1.15,2013-02-19 23:11:00,
2013-02-19 18:21:00,40.2,37.8,29.74,SE,133,0.0,0.0,91,0.00,,,0.03,Wunderground v.1.15,2013-02-19 23:21:00,
2013-02-19 18:31:00,40.3,37.9,29.73,ESE,103,0.0,0.0,91,0.00,,,0.03,Wunderground v.1.15,2013-02-19 23:31:00,
2013-02-19 18:41:00,40.3,37.9,29.72,SE,126,0.0,1.0,91,0.00,,,0.03,Wunderground v.1.15,2013-02-19 23:41:00,
2013-02-19 18:51:00,40.2,38.1,29.71,SE,128,0.0,0.0,92,0.00,,,0.04,Wunderground v.1.15,2013-02-19 23:51:00,
2013-02-19 19:01:00,40.1,38.0,29.71,SE,128,0.0,0.0,92,0.00,,,0.04,Wunderground v.1.15,2013-02-20 00:01:00,
2013-02-19 19:06:00,40.0,38.1,29.71,SE,128,0.0,0.0,93,0.00,,,0.04,Wunderground v.1.15,2013-02-20 00:06:00,
2013-02-19 19:16:00,39.9,38.0,29.70,SE,128,0.0,0.0,93,0.00,,,0.05,Wunderground v.1.15,2013-02-20 00:16:00,
2013-02-19 19:26:00,39.9,38.3,29.70,SE,128,0.0,0.0,94,0.13,,,0.08,Wunderground v.1.15,2013-02-20 00:26:00,
2013-02-19 19:36:00,40.1,38.8,29.68,SE,128,0.0,1.0,95,0.11,,,0.10,Wunderground v.1.15,2013-02-20 00:36:00,
2013-02-19 19:46:00,40.2,38.9,29.67,SE,131,0.0,0.0,95,0.13,,,0.12,Wunderground v.1.15,2013-02-20 00:46:00,
2013-02-19 19:56:00,40.2,38.9,29.67,SE,130,0.0,0.0,95,0.09,,,0.13,Wunderground v.1.15,2013-02-20 00:56:00,
2013-02-19 20:06:00,40.4,39.4,29.66,ESE,118,0.0,0.0,96,0.15,,,0.16,Wunderground v.1.15,2013-02-20 01:06:00,
2013-02-19 20:16:00,40.5,39.4,29.65,SE,126,0.0,0.0,96,0.09,,,0.17,Wunderground v.1.15,2013-02-20 01:16:00,
2013-02-19 20:26:00,40.3,39.3,29.64,SE,134,1.0,1.0,96,0.17,,,0.20,Wunderground v.1.15,2013-02-20 01:26:00,
2013-02-19 20:31:00,40.2,39.2,29.64,SE,135,1.0,1.0,96,0.11,,,0.21,Wunderground v.1.15,2013-02-20 01:31:00,
2013-02-19 20:36:00,40.2,39.2,29.63,ESE,115,1.0,1.0,96,0.15,,,0.22,Wunderground v.1.15,2013-02-20 01:36:00,
2013-02-19 20:46:00,40.2,39.2,29.62,ESE,117,1.0,1.0,96,0.15,,,0.24,Wunderground v.1.15,2013-02-20 01:46:00,
2013-02-19 20:56:00,40.2,39.4,29.60,SE,128,0.0,0.0,97,0.19,,,0.27,Wunderground v.1.15,2013-02-20 01:56:00,
2013-02-19 21:06:00,40.2,39.4,29.59,ESE,107,1.0,1.0,97,0.22,,,0.30,Wunderground v.1.15,2013-02-20 02:06:00,
2013-02-19 21:11:00,40.2,39.4,29.58,ESE,122,1.0,1.0,97,0.15,,,0.31,Wunderground v.1.15,2013-02-20 02:11:00,
2013-02-19 21:21:00,40.3,39.5,29.57,East,91,1.0,1.0,97,0.08,,,0.32,Wunderground v.1.15,2013-02-20 02:21:00,
2013-02-19 21:31:00,40.4,39.6,29.55,SE,134,1.0,1.0,97,0.00,,,0.32,Wunderground v.1.15,2013-02-20 02:31:00,
2013-02-19 21:36:00,40.3,39.5,29.54,South,170,1.0,1.0,97,0.00,,,0.32,Wunderground v.1.15,2013-02-20 02:36:00,
2013-02-19 21:46:00,40.1,39.3,29.57,South,169,0.0,0.0,97,0.00,,,0.32,Wunderground v.1.15,2013-02-20 02:46:00,
2013-02-19 21:56:00,40.2,39.4,29.56,ESE,103,0.0,0.0,97,0.14,,,0.34,Wunderground v.1.15,2013-02-20 02:56:00,
2013-02-19 22:06:00,40.3,39.8,29.55,ESE,103,0.0,0.0,98,0.16,,,0.36,Wunderground v.1.15,2013-02-20 03:06:00,
2013-02-19 22:16:00,40.3,39.8,29.55,ESE,103,0.0,0.0,98,0.14,,,0.38,Wunderground v.1.15,2013-02-20 03:16:00,
2013-02-19 22:26:00,40.5,40.0,29.57,ESE,103,0.0,0.0,98,0.06,,,0.39,Wunderground v.1.15,2013-02-20 03:26:00,
2013-02-19 22:36:00,40.7,40.2,29.56,ESE,104,0.0,0.0,98,0.08,,,0.40,Wunderground v.1.15,2013-02-20 03:36:00,
2013-02-19 22:46:00,40.8,40.3,29.55,ESE,103,0.0,0.0,98,0.10,,,0.42,Wunderground v.1.15,2013-02-20 03:46:00,
2013-02-19 22:56:00,40.7,40.2,29.55,ESE,103,0.0,0.0,98,0.06,,,0.43,Wunderground v.1.15,2013-02-20 03:56:00,
2013-02-19 23:01:00,40.7,40.2,29.54,ESE,103,0.0,0.0,98,0.11,,,0.44,Wunderground v.1.15,2013-02-20 04:01:00,
2013-02-19 23:11:00,40.7,40.2,29.51,ESE,104,0.0,0.0,98,0.05,,,0.44,Wunderground v.1.15,2013-02-20 04:11:00,
2013-02-19 23:21:00,40.7,40.2,29.51,ESE,103,0.0,0.0,98,0.04,,,0.45,Wunderground v.1.15,2013-02-20 04:21:00,
2013-02-19 23:31:00,40.3,39.8,29.51,ESE,103,0.0,0.0,98,0.00,,,0.45,Wunderground v.1.15,2013-02-20 04:31:00,
2013-02-19 23:41:00,40.0,39.5,29.51,ESE,103,0.0,0.0,98,0.00,,,0.45,Wunderground v.1.15,2013-02-20 04:41:00,
2013-02-19 23:51:00,39.6,39.1,29.52,ESE,104,0.0,0.0,98,0.00,,,0.45,Wunderground v.1.15,2013-02-20 04:51:00,